TimeEST,TemperatureF,Dew PointF,Humidity,Sea Level PressureIn,VisibilityMPH,Wind Direction,Wind SpeedMPH,Gust SpeedMPH,PrecipitationIn,Events,Conditions,WindDirDegrees,DateUTC
12:53 AM,52.0,51.1,97,30.27,8.0,NE,5.8,-,N/A,,Clear,40,2013-01-27 05:53:00
1:53 AM,51.1,51.1,100,30.26,3.0,NE,5.8,-,N/A,,Clear,40,2013-01-27 06:53:00
2:53 AM,50.0,48.9,96,30.26,3.0,NE,4.6,-,N/A,,Clear,40,2013-01-27 07:53:00
3:04 AM,50.0,50.0,100,30.26,1.5,NE,3.5,-,N/A,,Clear,50,2013-01-27 08:04:00
3:15 AM,51.8,50.0,94,30.26,0.8,ENE,3.5,-,N/A,,Clear,60,2013-01-27 08:15:00
3:22 AM,51.8,51.8,100,30.25,2.0,NE,3.5,-,N/A,,Clear,50,2013-01-27 08:22:00
3:27 AM,51.8,50.0,94,30.25,0.8,NE,3.5,-,N/A,,Clear,40,2013-01-27 08:27:00
3:53 AM,50.0,50.0,100,30.26,0.2,NE,3.5,-,0.01,Fog,Fog,40,2013-01-27 08:53:00
4:07 AM,50.0,50.0,100,30.26,0.2,NNE,3.5,-,N/A,Fog,Fog,30,2013-01-27 09:07:00
4:53 AM,48.9,48.9,100,30.26,0.5,NNE,5.8,-,N/A,Fog,Fog,30,2013-01-27 09:53:00
5:00 AM,48.2,48.2,100,30.25,0.2,NE,5.8,-,N/A,Fog,Fog,40,2013-01-27 10:00:00
5:11 AM,48.2,46.4,93,30.26,0.2,NNE,3.5,-,N/A,Fog,Fog,30,2013-01-27 10:11:00
5:27 AM,48.2,48.2,100,30.26,0.5,NNE,3.5,-,N/A,Fog,Fog,30,2013-01-27 10:27:00
5:53 AM,50.0,48.9,96,30.27,1.2,NNE,4.6,-,N/A,,Clear,30,2013-01-27 10:53:00
6:21 AM,48.2,46.4,93,30.28,0.8,NE,4.6,-,N/A,,Clear,50,2013-01-27 11:21:00
6:29 AM,48.2,48.2,100,30.28,2.0,NE,5.8,-,N/A,,Clear,40,2013-01-27 11:29:00
6:49 AM,48.2,46.4,93,30.28,3.0,NE,6.9,-,N/A,,Clear,40,2013-01-27 11:49:00
6:53 AM,48.0,48.0,100,30.29,5.0,NE,5.8,-,N/A,,Clear,40,2013-01-27 11:53:00
7:22 AM,48.2,48.2,100,30.29,2.0,NE,4.6,-,N/A,,Clear,40,2013-01-27 12:22:00
7:53 AM,51.1,50.0,96,30.30,2.0,NE,4.6,-,N/A,,Clear,50,2013-01-27 12:53:00
8:01 AM,51.8,51.8,100,30.30,3.0,NE,4.6,-,N/A,,Clear,50,2013-01-27 13:01:00
8:53 AM,60.1,57.0,90,30.31,3.0,ENE,8.1,-,N/A,,Clear,60,2013-01-27 13:53:00
9:53 AM,66.9,57.0,70,30.32,10.0,NE,6.9,-,N/A,,Clear,50,2013-01-27 14:53:00
10:53 AM,73.9,55.9,53,30.32,10.0,East,11.5,-,N/A,,Clear,90,2013-01-27 15:53:00
11:53 AM,77.0,54.0,45,30.31,10.0,ENE,8.1,-,N/A,,Clear,60,2013-01-27 16:53:00
12:53 PM,78.1,48.9,36,30.28,10.0,ESE,3.5,17.3,N/A,,Clear,110,2013-01-27 17:53:00
1:53 PM,80.1,48.9,34,30.25,10.0,NE,9.2,17.3,N/A,,Clear,40,2013-01-27 18:53:00
2:53 PM,80.1,46.9,31,30.24,10.0,ESE,6.9,16.1,N/A,,Clear,110,2013-01-27 19:53:00
3:53 PM,81.0,46.0,29,30.23,10.0,ESE,11.5,-,N/A,,Clear,120,2013-01-27 20:53:00
4:53 PM,79.0,48.9,35,30.24,10.0,East,12.7,18.4,N/A,,Clear,100,2013-01-27 21:53:00
5:53 PM,73.9,51.1,45,30.27,10.0,East,6.9,-,N/A,,Partly Cloudy,90,2013-01-27 22:53:00
6:53 PM,69.1,51.1,53,30.28,10.0,East,5.8,-,N/A,,Scattered Clouds,100,2013-01-27 23:53:00
7:53 PM,70.0,54.0,57,30.29,10.0,East,8.1,-,N/A,,Partly Cloudy,90,2013-01-28 00:53:00
8:53 PM,68.0,57.9,70,30.31,10.0,East,9.2,-,N/A,,Clear,90,2013-01-28 01:53:00
9:53 PM,66.9,59.0,76,30.32,10.0,East,8.1,-,N/A,,Clear,90,2013-01-28 02:53:00
10:53 PM,63.0,57.9,84,30.31,10.0,East,6.9,-,N/A,,Scattered Clouds,80,2013-01-28 03:53:00
11:53 PM,63.0,59.0,87,30.30,10.0,ENE,6.9,-,N/A,,Overcast,60,2013-01-28 04:53:00